Weather in Yumaguzino

Russia / Republic of Bashkortostan     52°53′58″N   56°23′27″E
temp.,
°C
wind,
m/s
gust,
m/s
humid.,
%
clouds,
%
prec.,
mm/h
press.,
hPa
HPBL,
m
2 march, tue
tue223:00−18w1110093 0.3 101920
02:00−19wsw11100100 0.1 102020
05:00−20sw11100100 0.1 102020
08:00−22s22100100 0.1 101921
11:00−19s3595100 0.1 1018275
14:00−15s6994100 0.1 1014405
17:00−14s71295100 0.9 1012462
20:00−12ssw61395100 1.7 1010657
3 march, wed
wed323:00−9s51495100 3.1 1008668
02:00−6ssw61396100 1.7 1005737
05:00−5ssw61396100 3.4 1004697
08:00−5ssw51196100 2.0 1003588
11:00−3sw5897100 3.9 1003535
14:00−2wsw4798100 1.0 1003525
17:00−2w4791100 1.8 1003677
20:00−8wsw229685 0.1 100427
4 march, thu
thu423:00−7sw239792 0.3 1005140
02:00−8w2397100 0.5 100450
05:00−12sw229798 0.7 100624
08:00−13sw1297100 0.6 100833
11:00−10w3592100 1.2 1010446
14:00−9wsw5793100 0.2 1010569
17:00−8sw5894100 0.6 1011530
20:00−10ssw41295100 0.5 1011455
5 march, fri
fri523:00−8ssw61395100 0.9 1011734
02:00−6sw71596100 1.5 1008874
05:00−3sw81594100 2.3 1007983
08:00−4sw91593100 0.2 1008906
11:00−4sw91595100 0.7 10081004
14:00−2sw101597100 1.5 1008979
17:00−2sw91497100 3.6 1010961
20:00−2sw81497100 1.4 1010879
6 march, sat
sat623:00−2sw71498100 2.8 1011759
02:00−1sw71299100 1.4 1011711
05:00−1sw61198100 3.1 1012644
08:00−1ssw61098100 0.3 1010628
11:00−1s81497100 1.3 1008705
14:000ssw91697100 2.4 10051004
17:000ssw101795100 2.5 10041083
20:000sw91699100 1.6 1003946